Terminal Aerodrome Forecast
Issued by NWS Atlanta, GA

Home | Current Version | Previous Version | Text Only | Print | Product List | Glossary On
Versions: 1 2 3 4 5 6 7 8 9 10 11 12 13 14 15 16 17 18 19 20 21 22 23 24 25 26 27 28 29 30 31 32 33 34 35 36 37 38 39 40
201
FTUS42 KFFC 282149 AAB
TAFATL
TAF AMD
KATL 282149Z 2822/2924 24013G20KT P6SM VCSH FEW060 BKN080
      TEMPO 2900/2903 VRB15G30KT 5SM SHRA BKN030
     FM290600 26006KT P6SM SCT250
     FM291500 28010KT P6SM SCT040 PROB30 2919/2923 6SM -TSRA
      BKN030CB=

USA.gov is the U.S. government's official web portal to all federal, state and local government web resources and services.